EW5313 Weather Reports


Display with metric or nautical units.
time (UTC)temp
F
wind
direction
speed
MPH
gust
MPH
rain 1hr
in
rain 24hr
in
rain mn
in
humidity
%
barometer
mb
20220119204820 76 319 0.0 0.0 0.00 0.00 0.00 22 1013.1
20220119204320 75 298 0.0 0.0 0.00 0.00 0.00 22 1013.2
20220119203820 76 312 0.0 0.0 0.00 0.00 0.00 24 1013.0
20220119203317 76 312 0.0 0.0 0.00 0.00 0.00 24 1013.1
20220119202819 76 303 0.0 0.0 0.00 0.00 0.00 22 1013.2
20220119202320 76 296 0.0 7.0 0.00 0.00 0.00 21 1013.1
20220119201819 76 240 2.0 7.0 0.00 0.00 0.00 24 1013.1
20220119201318 76 310 0.0 0.0 0.00 0.00 0.00 24 1013.2
20220119200818 76 286 0.0 0.0 0.00 0.00 0.00 25 1013.3
20220119200317 76 276 0.0 0.0 0.00 0.00 0.00 25 1013.4
20220119195816 75 306 0.0 4.0 0.00 0.00 0.00 26 1013.5
20220119195317 75 305 0.0 4.0 0.00 0.00 0.00 26 1013.6
20220119194816 75 230 0.0 1.0 0.00 0.00 0.00 26 1013.6
20220119194317 76 254 0.0 0.0 0.00 0.00 0.00 26 1013.7
20220119193816 75 288 0.0 0.0 0.00 0.00 0.00 27 1013.8
20220119193316 74 296 0.0 0.0 0.00 0.00 0.00 30 1013.9
20220119192819 73 296 0.0 0.0 0.00 0.00 0.00 30 1014.0
20220119192315 73 296 0.0 0.0 0.00 0.00 0.00 30 1014.1
20220119191816 74 0 0.0 5.0 0.00 0.00 0.00 30 1014.4
20220119191315 74 0 0.0 5.0 0.00 0.00 0.00 29 1014.5
20220119190815 74 296 0.0 3.0 0.00 0.00 0.00 29 1014.5
20220119190316 75 296 0.0 3.0 0.00 0.00 0.00 28 1014.7
20220119185814 74 296 0.0 0.0 0.00 0.00 0.00 30 1014.9
20220119185315 74 296 0.0 0.0 0.00 0.00 0.00 31 1015.1
20220119184815 0 296 0.0 0.0 0.00 0.00 0.00 1015.3
20220119184315 0 0.0 0.0 0.00 0.00 0.00 1015.5
20220119183813 0 0.0 0.0 0.00 0.00 0.00 1015.6
20220119183312 0 0.0 0.0 0.00 0.00 0.00 1015.8
20220119182814 73 296 1.0 4.0 0.00 0.00 0.00 31 1015.9
20220119182311 73 296 1.0 4.0 0.00 0.00 0.00 31 1016.0
20220119181812 73 296 0.0 0.0 0.00 0.00 0.00 32 1016.1
20220119181311 72 296 0.0 2.0 0.00 0.00 0.00 31 1016.2
20220119180808 73 296 0.0 2.0 0.00 0.00 0.00 31 1016.2
20220119180309 74 296 0.0 0.0 0.00 0.00 0.00 31 1016.4
20220119175811 74 296 0.0 0.0 0.00 0.00 0.00 31 1016.4
20220119175309 0 0.0 0.0 0.00 0.00 0.00 1016.4
20220119174808 72 296 0.0 0.0 0.00 0.00 0.00 32 1016.6
20220119174307 72 296 0.0 4.0 0.00 0.00 0.00 32 1016.7
20220119173806 72 296 0.0 4.0 0.00 0.00 0.00 32 1016.7
20220119173307 73 296 0.0 0.0 0.00 0.00 0.00 33 1016.8
20220119172805 71 296 0.0 0.0 0.00 0.00 0.00 33 1016.9
20220119172306 71 296 0.0 0.0 0.00 0.00 0.00 34 1016.9
20220119171804 71 296 0.0 0.0 0.00 0.00 0.00 33 1016.9
20220119171305 70 296 0.0 0.0 0.00 0.00 0.00 34 1016.9
20220119170805 69 296 0.0 0.0 0.00 0.00 0.00 35 1016.9
20220119170304 69 296 0.0 0.0 0.00 0.00 0.00 35 1017.0
20220119165806 69 296 0.0 0.0 0.00 0.00 0.00 35 1016.9
20220119165306 68 296 0.0 0.0 0.00 0.00 0.00 35 1016.9
20220119164805 0 0.0 0.0 0.00 0.00 0.00 1016.9
20220119164303 0 0.0 0.0 0.00 0.00 0.00 1016.9
20220119163803 0 0.0 0.0 0.00 0.00 0.00 1016.9
20220119163301 0 0.0 0.0 0.00 0.00 0.00 1016.9
20220119162802 0 0.0 0.0 0.00 0.00 0.00 1016.9
20220119162259 0 0.0 0.0 0.00 0.00 0.00 1016.9
20220119161759 0 0.0 0.0 0.00 0.00 0.00 1016.9
20220119161257 0 0.0 0.0 0.00 0.00 0.00 1016.8
20220119160757 0 0.0 0.0 0.00 0.00 0.00 1016.7
20220119160255 0 0.0 0.0 0.00 0.00 0.00 1016.8
20220119155755 60 295 0.0 0.0 0.00 0.00 0.00 42 1016.7
20220119155253 60 295 0.0 0.0 0.00 0.00 0.00 42 1016.6
20220119154754 60 296 0.0 0.0 0.00 0.00 0.00 42 1016.5
20220119154254 58 0 0.0 0.0 0.00 0.00 0.00 43 1016.3
20220119153753 58 0 0.0 0.0 0.00 0.00 0.00 43 1016.4
20220119153253 57 0 0.0 0.0 0.00 0.00 0.00 44 1016.2
20220119152753 56 0 0.0 0.0 0.00 0.00 0.00 45 1016.2
20220119152252 56 0 0.0 0.0 0.00 0.00 0.00 45 1016.1
20220119151753 56 0 0.0 0.0 0.00 0.00 0.00 45 1016.1
20220119151253 56 0 0.0 0.0 0.00 0.00 0.00 44 1016.0
20220119150752 55 0 0.0 0.0 0.00 0.00 0.00 43 1016.0
20220119150252 55 0 0.0 0.0 0.00 0.00 0.00 52 1015.9
20220119145753 0 0.0 0.0 0.00 0.00 0.00 1015.8
20220119145251 0 0.0 0.0 0.00 0.00 0.00 1015.6
20220119144751 0 0.0 0.0 0.00 0.00 0.00 1015.6
20220119144249 0 0.0 0.0 0.00 0.00 0.00 1015.8
20220119143748 0 0.0 0.0 0.00 0.00 0.00 1015.6
20220119143249 0 0.0 0.0 0.00 0.00 0.00 1015.5
20220119142746 48 0 0.0 0.0 0.00 0.00 0.00 51 1015.5
20220119142245 48 0 0.0 0.0 0.00 0.00 0.00 51 1015.4
20220119141745 48 0 0.0 0.0 0.00 0.00 0.00 52 1015.4
20220119141243 48 0 0.0 0.0 0.00 0.00 0.00 52 1015.4
20220119140744 0 0.0 0.0 0.00 0.00 0.00 1015.4
20220119140244 0 0.0 0.0 0.00 0.00 0.00 1015.3
20220119135744 0 0.0 0.0 0.00 0.00 0.00 1015.2
20220119135241 47 0 0.0 0.0 0.00 0.00 0.00 52 1015.2
20220119134740 47 0 0.0 0.0 0.00 0.00 0.00 52 1015.2
20220119134240 47 0 0.0 0.0 0.00 0.00 0.00 53 1015.1
20220119133739 47 0 0.0 0.0 0.00 0.00 0.00 53 1015.2
20220119133239 47 0 0.0 0.0 0.00 0.00 0.00 53 1015.0
20220119132739 0 0.0 0.0 0.00 0.00 0.00 1014.9
20220119132238 0 0.0 0.0 0.00 0.00 0.00 1014.7
20220119131738 0 0.0 0.0 0.00 0.00 0.00 1014.7
20220119131236 0 0.0 0.0 0.00 0.00 0.00 1014.7
20220119130736 46 0 0.0 0.0 0.00 0.00 0.00 50 1014.6
20220119130234 46 0 0.0 0.0 0.00 0.00 0.00 50 1014.6
20220119125736 46 0 0.0 0.0 0.00 0.00 0.00 50 1014.5
20220119125234 0 0.0 0.0 0.00 0.00 0.00 1014.4
20220119124734 0 0.0 0.0 0.00 0.00 0.00 1014.2
20220119124232 0 0.0 0.0 0.00 0.00 0.00 1014.1
20220119123731 0 0.0 0.0 0.00 0.00 0.00 1014.1
20220119123231 0 0.0 0.0 0.00 0.00 0.00 1013.9
20220119122729 0 0.0 0.0 0.00 0.00 0.00 1014.0
20220119122228 0 0.0 0.0 0.00 0.00 0.00 1013.8
20220119121728 0 0.0 0.0 0.00 0.00 0.00 1013.8
20220119121227 0 0.0 0.0 0.00 0.00 0.00 1013.7
20220119120725 0 0.0 0.0 0.00 0.00 0.00 1013.7
20220119120224 0 0.0 0.0 0.00 0.00 0.00 1013.8
20220119115724 0 0.0 0.0 0.00 0.00 0.00 1013.7
20220119115222 0 0.0 0.0 0.00 0.00 0.00 1013.7
20220119114723 0 0.0 0.0 0.00 0.00 0.00 1013.7
20220119114221 0 0.0 0.0 0.00 0.00 0.00 1013.6
20220119113720 0 0.0 0.0 0.00 0.00 0.00 1013.6
20220119113219 49 0 0.0 0.0 0.00 0.00 0.00 44 1013.5
20220119112719 49 0 0.0 0.0 0.00 0.00 0.00 44 1013.6
20220119112217 49 0 0.0 0.0 0.00 0.00 0.00 44 1013.4
20220119111718 49 0 0.0 0.0 0.00 0.00 0.00 43 1013.5
20220119111218 49 0 0.0 0.0 0.00 0.00 0.00 43 1013.3
20220119110718 50 0 0.0 0.0 0.00 0.00 0.00 44 1013.3
20220119110215 50 0 0.0 0.0 0.00 0.00 0.00 44 1013.3
20220119105715 50 0 0.0 0.0 0.00 0.00 0.00 44 1013.1
20220119105215 50 0 0.0 0.0 0.00 0.00 0.00 44 1013.1
20220119104715 50 0 0.0 0.0 0.00 0.00 0.00 44 1013.2
20220119104216 50 0 0.0 0.0 0.00 0.00 0.00 43 1013.2
20220119103715 50 0 0.0 0.0 0.00 0.00 0.00 43 1013.1
20220119103216 51 0 0.0 0.0 0.00 0.00 0.00 43 1013.2
20220119102716 51 0 0.0 0.0 0.00 0.00 0.00 43 1013.1
20220119102215 51 0 0.0 0.0 0.00 0.00 0.00 42 1013.2
20220119101717 51 0 0.0 0.0 0.00 0.00 0.00 44 1013.2
20220119101215 51 0 0.0 0.0 0.00 0.00 0.00 44 1013.1
20220119100715 51 0 0.0 0.0 0.00 0.00 0.00 43 1013.1
20220119100215 51 0 0.0 0.0 0.00 0.00 0.00 42 1013.2
20220119095714 51 0 0.0 0.0 0.00 0.00 0.00 41 1013.1
20220119095214 51 0 0.0 0.0 0.00 0.00 0.00 40 1012.8
20220119094714 52 0 0.0 0.0 0.00 0.00 0.00 40 1013.0
20220119094214 52 0 0.0 0.0 0.00 0.00 0.00 40 1012.8
20220119093714 52 0 0.0 0.0 0.00 0.00 0.00 40 1012.8
20220119093213 52 0 0.0 0.0 0.00 0.00 0.00 41 1012.6
20220119092713 0 0.0 0.0 0.00 0.00 0.00 1012.7
20220119092211 0 0.0 0.0 0.00 0.00 0.00 1012.7
20220119091710 0 0.0 0.0 0.00 0.00 0.00 1012.8
20220119091210 0 0.0 0.0 0.00 0.00 0.00 1012.8
20220119090709 0 0.0 0.0 0.00 0.00 0.00 1012.7
20220119090209 0 0.0 0.0 0.00 0.00 0.00 1012.8
20220119085707 0 0.0 0.0 0.00 0.00 0.00 1012.6
20220119085205 0 0.0 0.0 0.00 0.00 0.00 1012.5
20220119084705 0 0.0 0.0 0.00 0.00 0.00 1012.4
20220119084204 0 0 0.0 0.0 0.00 0.00 0.00 1012.6
20220119083703 53 0 0.0 0.0 0.00 0.00 0.00 39 1012.5
20220119083203 53 0 0.0 0.0 0.00 0.00 0.00 39 1012.4
20220119082701 53 0 0.0 0.0 0.00 0.00 0.00 39 1012.4
20220119082202 0 0.0 0.0 0.00 0.00 0.00 1012.4
20220119081702 0 0.0 0.0 0.00 0.00 0.00 1012.4
20220119081200 0 0.0 0.0 0.00 0.00 0.00 1012.2
20220119080659 0 0.0 0.0 0.00 0.00 0.00 1012.3
20220119080202 0 0.0 0.0 0.00 0.00 0.00 1012.4
20220119075656 0 0.0 0.0 0.00 0.00 0.00 1012.2
20220119075156 0 0 0.0 0.0 0.00 0.00 0.00 1012.1
20220119074655 0 0 0.0 0.0 0.00 0.00 0.00 1012.0
20220119074154 0 0.0 0.0 0.00 0.00 0.00 1012.0
20220119073655 0 0.0 0.0 0.00 0.00 0.00 1012.0
20220119073152 53 0 0.0 0.0 0.00 0.00 0.00 36 1011.8
20220119072652 53 0 0.0 0.0 0.00 0.00 0.00 36 1011.9
20220119072153 53 0 0.0 0.0 0.00 0.00 0.00 36 1011.7
20220119071651 0 0.0 0.0 0.00 0.00 0.00 1011.7
20220119071150 0 0.0 0.0 0.00 0.00 0.00 1011.5
20220119070649 0 0.0 0.0 0.00 0.00 0.00 1011.5
20220119070148 0 0.0 0.0 0.00 0.00 0.00 1011.5
20220119065647 0 0.0 0.0 0.00 0.00 0.00 1011.5
20220119065147 0 0.0 0.0 0.00 0.00 0.00 1011.8
20220119064645 54 0 0.0 0.0 0.00 0.00 0.00 36 1011.8
20220119064144 54 0 0.0 0.0 0.00 0.00 0.00 36 1011.9
20220119063643 55 0 0.0 0.0 0.00 0.00 0.00 37 1012.0
20220119063145 55 0 0.0 0.0 0.00 0.00 0.00 33 1011.8
20220119062644 0 0.0 0.0 0.00 0.00 0.00 1011.8
20220119062142 0 0.0 0.0 0.00 0.00 0.00 1011.7
20220119061642 0 0.0 0.0 0.00 0.00 0.00 1011.5
20220119061140 0 0.0 0.0 0.00 0.00 0.00 1011.5
20220119060639 0 0.0 0.0 0.00 0.00 0.00 1011.5
20220119060139 0 0.0 0.0 0.00 0.00 0.00 1011.4
20220119055638 0 0.0 0.0 0.00 0.00 0.00 1011.4
20220119055137 0 0.0 0.0 0.00 0.00 0.00 1011.5
20220119054635 0 0.0 0.0 0.00 0.00 0.00 1011.8
20220119054134 0 0.0 0.0 0.00 0.00 0.00 1011.7
20220119053634 0 0.0 0.0 0.00 0.00 0.00 1011.7
20220119053133 0 0.0 0.0 0.00 0.00 0.00 1011.5
20220119052631 0 0.0 0.0 0.00 0.00 0.00 1011.5
20220119052130 0 0.0 0.0 0.00 0.00 0.00 1011.4
20220119051630 0 0.0 0.0 0.00 0.00 0.00 1011.5
20220119051129 58 0 0.0 0.0 0.00 0.00 0.00 33 1011.5
20220119050627 58 0 0.0 0.0 0.00 0.00 0.00 33 1011.5
20220119050128 59 0 0.0 0.0 0.00 0.00 0.00 33 1011.5
20220119045627 59 0 0.0 0.0 0.00 0.00 0.00 33 1011.3
20220119045126 59 0 0.0 0.0 0.00 0.00 0.00 33 1011.3
20220119044625 60 0 0.0 0.0 0.00 0.00 0.00 32 1011.3
20220119044124 60 0 0.0 0.0 0.00 0.00 0.00 31 1011.3
20220119043626 60 0 0.0 0.0 0.00 0.00 0.00 31 1011.4
20220119043125 61 0 0.0 0.0 0.00 0.00 0.00 31 1011.3
20220119042626 61 0 0.0 0.0 0.00 0.00 0.00 31 1011.3
20220119042126 62 0 0.0 0.0 0.00 0.00 0.00 31 1011.3
20220119041624 62 0 0.0 0.0 0.00 0.00 0.00 31 1011.3
20220119041126 62 0 0.0 0.0 0.00 0.00 0.00 31 1011.2
20220119040626 62 0 0.0 0.0 0.00 0.00 0.00 30 1011.2
20220119040125 62 0 0.0 0.0 0.00 0.00 0.00 30 1011.4
20220119035624 62 0 0.0 0.0 0.00 0.00 0.00 30 1011.4
20220119035124 0 0 0.0 0.0 0.00 0.00 0.00 1011.4
20220119034624 0 0.0 0.0 0.00 0.00 0.00 1011.5
20220119034125 62 0 0.0 0.0 0.00 0.00 0.00 30 1011.3
20220119033621 62 0 0.0 0.0 0.00 0.00 0.00 30 1011.4
20220119033126 62 0 0.0 0.0 0.00 0.00 0.00 29 1011.5
20220119032620 63 0 0.0 0.0 0.00 0.00 0.00 30 1011.5
20220119032127 0 0.0 0.0 0.00 0.00 0.00 1011.4
20220119031620 0 0.0 0.0 0.00 0.00 0.00 1011.4
20220119031119 0 0.0 0.0 0.00 0.00 0.00 1011.5
20220119030618 64 0 0.0 0.0 0.00 0.00 0.00 29 1011.7
20220119030117 64 0 0.0 0.0 0.00 0.00 0.00 29 1011.4
20220119025616 64 0 0.0 0.0 0.00 0.00 0.00 29 1011.4
20220119025116 64 0 0.0 0.0 0.00 0.00 0.00 30 1011.5
20220119024617 64 0 0.0 0.0 0.00 0.00 0.00 29 1011.7
20220119024116 65 0 0.0 0.0 0.00 0.00 0.00 29 1011.5
20220119023617 66 0 0.0 0.0 0.00 0.00 0.00 28 1011.4
20220119023117 66 0 0.0 0.0 0.00 0.00 0.00 27 1011.5
20220119022617 66 0 0.0 0.0 0.00 0.00 0.00 28 1011.5
20220119022116 0 0.0 0.0 0.00 0.00 0.00 1011.4
20220119021616 67 0 0.0 0.0 0.00 0.00 0.00 28 1011.5
20220119021114 67 0 0.0 0.0 0.00 0.00 0.00 28 1011.5
20220119020615 68 0 0.0 0.0 0.00 0.00 0.00 28 1011.5
20220119020113 68 0 0.0 0.0 0.00 0.00 0.00 28 1011.2
20220119015612 68 0 0.0 0.0 0.00 0.00 0.00 27 1011.1
20220119015111 68 0 0.0 0.0 0.00 0.00 0.00 27 1011.2
20220119014612 69 0 0.0 0.0 0.00 0.00 0.00 27 1011.0
20220119014113 69 282 0.0 0.0 0.00 0.00 0.00 27 1011.3
20220119013612 69 283 0.0 0.0 0.00 0.00 0.00 27 1011.2
20220119013111 69 283 0.0 0.0 0.00 0.00 0.00 27 1011.2
20220119012611 69 283 0.0 0.0 0.00 0.00 0.00 27 1011.2
20220119012110 70 283 0.0 0.0 0.00 0.00 0.00 27 1011.2
20220119011610 70 283 0.0 0.0 0.00 0.00 0.00 26 1011.1
20220119011110 71 283 0.0 0.0 0.00 0.00 0.00 26 1011.1
20220119010610 71 283 0.0 0.0 0.00 0.00 0.00 25 1011.0
20220119010108 71 283 0.0 0.0 0.00 0.00 0.00 25 1011.0
20220119005611 72 283 0.0 0.0 0.00 0.00 0.00 25 1010.9
20220119005109 72 283 0.0 0.0 0.00 0.00 0.00 25 1010.9
20220119004608 73 283 0.0 0.0 0.00 0.00 0.00 25 1010.8
20220119004110 74 283 0.0 0.0 0.00 0.00 0.00 24 1010.8
20220119003609 74 283 0.0 0.0 0.00 0.00 0.00 24 1010.6
20220119003109 74 0 0.0 0.0 0.00 0.00 0.00 23 1010.5
20220119002609 74 0 0.0 0.0 0.00 0.00 0.00 23 1010.5
20220119002110 74 283 0.0 0.0 0.00 0.00 0.00 23 1010.4
20220119001609 75 283 0.0 0.0 0.00 0.00 0.00 23 1010.5
20220119001110 75 283 0.0 0.0 0.00 0.00 0.00 23 1010.5
20220119000608 76 283 0.0 0.0 0.00 0.00 0.00 23 1010.4
20220119000109 0 0.0 0.0 0.00 0.00 0.00 1010.5
20220118235607 0 0.0 0.0 0.00 0.00 0.00 1010.5
20220118235106 0 0.0 0.0 0.00 0.00 0.00 1010.5
20220118234606 0 0.0 0.0 0.00 0.00 0.00 1010.0
20220118234104 0 0.0 0.0 0.00 0.00 0.00 1010.5
20220118233603 0 0.0 0.0 0.00 0.00 0.00 1010.6
20220118233103 0 0.0 0.0 0.00 0.00 0.00 1010.5
20220118232601 0 0.0 0.0 0.00 0.00 0.00 1010.6
20220118232101 0 0.0 0.0 0.00 0.00 0.00 1010.5
20220118231559 0 0.0 0.0 0.00 0.00 0.00 1010.6
20220118231059 0 0.0 0.0 0.00 0.00 0.00 1010.7
20220118230557 79 283 0.0 0.0 0.00 0.00 0.00 21 1010.7
20220118230058 79 283 0.0 0.0 0.00 0.00 0.00 21 1010.7
20220118225557 79 283 0.0 0.0 0.00 0.00 0.00 21 1010.8
20220118225056 79 282 0.0 0.0 0.00 0.00 0.00 20 1010.7
20220118224557 79 283 0.0 0.0 0.00 0.00 0.00 20 1010.7
20220118224100 79 283 0.0 0.0 0.00 0.00 0.00 20 1010.7
20220118223558 79 283 0.0 0.0 0.00 0.00 0.00 21 1010.7
20220118223057 79 283 0.0 0.0 0.00 0.00 0.00 20 1010.7
20220118222557 79 279 0.0 0.0 0.00 0.00 0.00 20 1010.8
20220118222057 79 279 0.0 0.0 0.00 0.00 0.00 21 1010.7
20220118221555 78 279 0.0 0.0 0.00 0.00 0.00 21 1010.9
20220118221055 78 279 0.0 0.0 0.00 0.00 0.00 21 1010.8
20220118220557 78 279 0.0 0.0 0.00 0.00 0.00 21 1010.8
20220118220057 79 266 0.0 0.0 0.00 0.00 0.00 20 1010.9
20220118215555 79 264 0.0 0.0 0.00 0.00 0.00 21 1010.9
20220118215054 79 259 0.0 0.0 0.00 0.00 0.00 20 1010.9
20220118214558 79 245 0.0 11.0 0.00 0.00 0.00 20 1010.9
20220118214055 80 245 1.0 11.0 0.00 0.00 0.00 20 1011.1
20220118213555 79 282 0.0 5.0 0.00 0.00 0.00 20 1011.2
20220118213055 79 285 0.0 0.0 0.00 0.00 0.00 21 1011.2
20220118212554 78 283 0.0 0.0 0.00 0.00 0.00 20 1011.2
20220118212054 78 283 0.0 10.0 0.00 0.00 0.00 20 1011.2
20220118211554 78 286 0.0 10.0 0.00 0.00 0.00 20 1011.2
20220118211053 0 0.0 0.0 0.00 0.00 0.00 1011.4
20220118210553 0 0.0 0.0 0.00 0.00 0.00 1011.4
20220118210052 0 0.0 0.0 0.00 0.00 0.00 1011.5
20220118205551 78 303 0.0 0.0 0.00 0.00 0.00 20 1011.7
20220118205049 78 303 0.0 0.0 0.00 0.00 0.00 20 1011.8